Year,Month,Day,Hour,Minute,Value (Times are PST for temperature in C)
2013,09,20,00,00,11.80
2013,09,20,00,01,11.80
2013,09,20,00,02,11.80
2013,09,20,00,03,11.80
2013,09,20,00,04,11.90
2013,09,20,00,05,11.90
2013,09,20,00,06,11.90
2013,09,20,00,07,11.90
2013,09,20,00,08,11.90
2013,09,20,00,09,11.90
2013,09,20,00,10,11.90
2013,09,20,00,11,11.90
2013,09,20,00,12,12.00
2013,09,20,00,13,12.00
2013,09,20,00,14,12.00
2013,09,20,00,15,12.10
2013,09,20,00,16,12.10
2013,09,20,00,17,12.10
2013,09,20,00,18,12.10
2013,09,20,00,19,12.10
2013,09,20,00,20,12.10
2013,09,20,00,21,12.00
2013,09,20,00,22,12.00
2013,09,20,00,23,12.00
2013,09,20,00,24,12.00
2013,09,20,00,25,12.00
2013,09,20,00,26,12.00
2013,09,20,00,27,11.90
2013,09,20,00,28,11.90
2013,09,20,00,29,12.00
2013,09,20,00,30,12.00
2013,09,20,00,31,12.00
2013,09,20,00,32,12.00
2013,09,20,00,33,12.00
2013,09,20,00,34,12.00
2013,09,20,00,35,12.10
2013,09,20,00,36,12.10
2013,09,20,00,37,12.10
2013,09,20,00,38,12.10
2013,09,20,00,39,12.10
2013,09,20,00,40,12.10
2013,09,20,00,41,12.10
2013,09,20,00,42,12.10
2013,09,20,00,43,12.10
2013,09,20,00,44,12.10
2013,09,20,00,45,12.10
2013,09,20,00,46,12.10
2013,09,20,00,47,12.10
2013,09,20,00,48,12.10
2013,09,20,00,49,12.10
2013,09,20,00,50,12.10
2013,09,20,00,51,12.20
2013,09,20,00,52,12.20
2013,09,20,00,53,12.20
2013,09,20,00,54,12.20
2013,09,20,00,55,12.20
2013,09,20,00,56,12.20
2013,09,20,00,57,12.20
2013,09,20,00,58,12.20
2013,09,20,00,59,12.20
2013,09,20,01,00,12.10
2013,09,20,01,01,12.10
2013,09,20,01,02,12.10
2013,09,20,01,03,12.10
2013,09,20,01,04,12.10
2013,09,20,01,05,12.10
2013,09,20,01,06,12.00
2013,09,20,01,07,12.00
2013,09,20,01,08,12.00
2013,09,20,01,09,12.10
2013,09,20,01,10,12.10
2013,09,20,01,11,12.10
2013,09,20,01,12,12.20
2013,09,20,01,13,12.20
2013,09,20,01,14,12.20
2013,09,20,01,15,12.20
2013,09,20,01,16,12.20
2013,09,20,01,17,12.20
2013,09,20,01,18,12.20
2013,09,20,01,19,12.20
2013,09,20,01,20,12.20
2013,09,20,01,21,12.20
2013,09,20,01,22,12.10
2013,09,20,01,23,12.00
2013,09,20,01,24,12.00
2013,09,20,01,25,11.90
2013,09,20,01,26,11.90
2013,09,20,01,27,11.90
2013,09,20,01,28,11.90
2013,09,20,01,29,11.90
2013,09,20,01,30,11.90
2013,09,20,01,31,11.90
2013,09,20,01,32,11.90
2013,09,20,01,33,11.90
2013,09,20,01,34,11.90
2013,09,20,01,35,11.90
2013,09,20,01,36,11.90
2013,09,20,01,37,11.90
2013,09,20,01,38,11.90
2013,09,20,01,39,11.90
2013,09,20,01,40,11.90
2013,09,20,01,41,11.90
2013,09,20,01,42,11.90
2013,09,20,01,43,11.90
2013,09,20,01,44,11.90
2013,09,20,01,45,11.80
2013,09,20,01,46,11.80
2013,09,20,01,47,11.80
2013,09,20,01,48,11.80
2013,09,20,01,49,11.80
2013,09,20,01,50,11.70
2013,09,20,01,51,11.70
2013,09,20,01,52,11.70
2013,09,20,01,53,11.70
2013,09,20,01,54,11.70
2013,09,20,01,55,11.60
2013,09,20,01,56,11.60
2013,09,20,01,57,11.60
2013,09,20,01,58,11.50
2013,09,20,01,59,11.50
2013,09,20,02,00,11.50
2013,09,20,02,01,11.40
2013,09,20,02,02,11.40
2013,09,20,02,03,11.40
2013,09,20,02,04,11.40
2013,09,20,02,05,11.30
2013,09,20,02,06,11.30
2013,09,20,02,07,11.30
2013,09,20,02,08,11.30
2013,09,20,02,09,11.30
2013,09,20,02,10,11.30
2013,09,20,02,11,11.30
2013,09,20,02,12,11.30
2013,09,20,02,13,11.30
2013,09,20,02,14,11.30
2013,09,20,02,15,11.30
2013,09,20,02,16,11.20
2013,09,20,02,17,11.20
2013,09,20,02,18,11.20
2013,09,20,02,19,11.20
2013,09,20,02,20,11.20
2013,09,20,02,21,11.10
2013,09,20,02,22,11.10
2013,09,20,02,23,11.10
2013,09,20,02,24,11.10
2013,09,20,02,25,11.10
2013,09,20,02,26,11.00
2013,09,20,02,27,11.00
2013,09,20,02,28,11.00
2013,09,20,02,29,11.00
2013,09,20,02,30,11.00
2013,09,20,02,31,10.90
2013,09,20,02,32,10.90
2013,09,20,02,33,10.90
2013,09,20,02,34,10.90
2013,09,20,02,35,10.90
2013,09,20,02,36,10.90
2013,09,20,02,37,10.90
2013,09,20,02,38,10.90
2013,09,20,02,39,10.90
2013,09,20,02,40,10.80
2013,09,20,02,41,10.90
2013,09,20,02,42,10.90
2013,09,20,02,43,10.90
2013,09,20,02,44,10.80
2013,09,20,02,45,10.80
2013,09,20,02,46,10.80
2013,09,20,02,47,10.80
2013,09,20,02,48,10.90
2013,09,20,02,49,10.90
2013,09,20,02,50,10.90
2013,09,20,02,51,10.90
2013,09,20,02,52,10.90
2013,09,20,02,53,10.90
2013,09,20,02,54,10.90
2013,09,20,02,55,10.90
2013,09,20,02,56,10.90
2013,09,20,02,57,10.90
2013,09,20,02,58,10.90
2013,09,20,02,59,10.90
2013,09,20,03,00,10.90
2013,09,20,03,01,10.90
2013,09,20,03,02,10.90
2013,09,20,03,03,10.90
2013,09,20,03,04,10.90
2013,09,20,03,05,11.00
2013,09,20,03,06,11.00
2013,09,20,03,07,11.10
2013,09,20,03,08,11.10
2013,09,20,03,09,11.10
2013,09,20,03,10,11.20
2013,09,20,03,11,11.20
2013,09,20,03,12,11.20
2013,09,20,03,13,11.20
2013,09,20,03,14,11.20
2013,09,20,03,15,11.20
2013,09,20,03,16,11.20
2013,09,20,03,17,11.20
2013,09,20,03,18,11.20
2013,09,20,03,19,11.20
2013,09,20,03,20,11.20
2013,09,20,03,21,11.20
2013,09,20,03,22,11.20
2013,09,20,03,23,11.20
2013,09,20,03,24,11.20
2013,09,20,03,25,11.20
2013,09,20,03,26,11.20
2013,09,20,03,27,11.20
2013,09,20,03,28,11.20
2013,09,20,03,29,11.10
2013,09,20,03,30,11.10
2013,09,20,03,31,11.10
2013,09,20,03,32,11.10
2013,09,20,03,33,11.00
2013,09,20,03,34,11.00
2013,09,20,03,35,11.00
2013,09,20,03,36,10.90
2013,09,20,03,37,10.90
2013,09,20,03,38,10.90
2013,09,20,03,39,10.90
2013,09,20,03,40,10.80
2013,09,20,03,41,10.80
2013,09,20,03,42,10.80
2013,09,20,03,43,10.80
2013,09,20,03,44,10.80
2013,09,20,03,45,10.80
2013,09,20,03,46,10.80
2013,09,20,03,47,10.80
2013,09,20,03,48,10.70
2013,09,20,03,49,10.70
2013,09,20,03,50,10.70
2013,09,20,03,51,10.70
2013,09,20,03,52,10.70
2013,09,20,03,53,10.70
2013,09,20,03,54,10.70
2013,09,20,03,55,10.70
2013,09,20,03,56,10.70
2013,09,20,03,57,10.70
2013,09,20,03,58,10.70
2013,09,20,03,59,10.70
2013,09,20,04,00,10.70
2013,09,20,04,01,10.70
2013,09,20,04,02,10.70
2013,09,20,04,03,10.70
2013,09,20,04,04,10.70
2013,09,20,04,05,10.70
2013,09,20,04,06,10.70
2013,09,20,04,07,10.70
2013,09,20,04,08,10.70
2013,09,20,04,09,10.70
2013,09,20,04,10,10.70
2013,09,20,04,11,10.70
2013,09,20,04,12,10.70
2013,09,20,04,13,10.70
2013,09,20,04,14,10.60
2013,09,20,04,15,10.60
2013,09,20,04,16,10.60
2013,09,20,04,17,10.60
2013,09,20,04,18,10.60
2013,09,20,04,19,10.60
2013,09,20,04,20,10.60
2013,09,20,04,21,10.50
2013,09,20,04,22,10.50
2013,09,20,04,23,10.50
2013,09,20,04,24,10.50
2013,09,20,04,25,10.40
2013,09,20,04,26,10.40
2013,09,20,04,27,10.40
2013,09,20,04,28,10.40
2013,09,20,04,29,10.30
2013,09,20,04,30,10.30
2013,09,20,04,31,10.30
2013,09,20,04,32,10.20
2013,09,20,04,33,10.20
2013,09,20,04,34,10.20
2013,09,20,04,35,10.20
2013,09,20,04,36,10.20
2013,09,20,04,37,10.20
2013,09,20,04,38,10.20
2013,09,20,04,39,10.20
2013,09,20,04,40,10.20
2013,09,20,04,41,10.20
2013,09,20,04,42,10.20
